KB3CAT Weather Reports


time (UTC)temp
C
wind
direction
speed
KPH
gust
KPH
rain 1hr
cm
rain 24hr
cm
rain mn
cm
humidity
%
barometer
mb
20260505165136 27 248 8.0 14.5 0.00 0.00 0.00 36 1008.8
20260505164116 26 293 6.4 9.7 0.00 0.00 0.00 38 1009.0
20260505163116 26 248 4.8 8.0 0.00 0.00 0.00 39 1009.2
20260505162116 26 248 8.0 14.5 0.00 0.00 0.00 37 1009.4
20260505161116 25 225 4.8 11.3 0.00 0.00 0.00 39 1009.5
20260505160116 25 248 6.4 9.7 0.00 0.00 0.00 39 1009.5
20260505153157 25 225 4.8 9.7 0.00 0.00 0.00 41 1009.7
20260505152116 25 248 9.7 19.3 0.00 0.00 0.00 40 1009.6
20260505151116 25 248 9.7 17.7 0.00 0.00 0.00 39 1009.6
20260505150116 25 248 9.7 14.5 0.00 0.00 0.00 40 1009.5
20260505140117 24 225 1.6 4.8 0.00 0.00 0.00 46 1009.9
20260505130116 21 0.0 0.0 0.00 0.00 0.00 57 1010.1
20260505124136 19 315 3.2 4.8 0.00 0.00 0.00 62 1010.3
20260505123136 19 23 1.6 3.2 0.00 0.00 0.00 62 1010.3
20260505122116 18 0.0 0.0 0.00 0.00 0.00 61 1010.4
20260505121136 18 0.0 0.0 0.00 0.00 0.00 63 1010.4
20260505120116 17 0.0 0.0 0.00 0.00 0.00 67 1010.3
20260505115116 16 0.0 0.0 0.00 0.00 0.00 69 1010.3
20260505114116 15 0.0 0.0 0.00 0.00 0.00 73 1010.2
20260505113117 15 0.0 1.6 0.00 0.00 0.00 75 1010.1
20260505112116 14 0.0 1.6 0.00 0.00 0.00 74 1009.9
20260505111117 14 0.0 0.0 0.00 0.00 0.00 74 1009.9
20260505110116 13 135 1.6 3.2 0.00 0.00 0.00 77 1009.8
20260505102117 11 248 1.6 3.2 0.00 0.00 0.00 83 1009.6
20260505101116 11 0.0 1.6 0.00 0.00 0.00 81 1009.4
20260505100116 11 0.0 0.0 0.00 0.00 0.00 81 1009.4
20260505095116 11 0.0 0.0 0.00 0.00 0.00 83 1009.4
20260505094116 11 0.0 0.0 0.00 0.00 0.00 82 1009.2
20260505093116 11 0.0 0.0 0.00 0.00 0.00 80 1009.2
20260505092116 12 0.0 1.6 0.00 0.00 0.00 80 1009.2
20260505091116 11 0.0 0.0 0.00 0.00 0.00 81 1009.1
20260505090116 11 0.0 0.0 0.00 0.00 0.00 80 1009.2
20260505085116 12 270 1.6 3.2 0.00 0.00 0.00 78 1009.1
20260505084116 12 293 3.2 4.8 0.00 0.00 0.00 79 1009.0
20260505083116 12 0.0 0.0 0.00 0.00 0.00 79 1009.0
20260505082157 12 0.0 0.0 0.00 0.00 0.00 78 1009.0
20260505081116 12 0.0 0.0 0.00 0.00 0.00 78 1009.1
20260505080117 12 0.0 0.0 0.00 0.00 0.00 77 1009.0
20260505075116 12 293 1.6 3.2 0.00 0.00 0.00 76 1008.9
20260505074116 13 0.0 0.0 0.00 0.00 0.00 75 1008.8
20260505073137 13 315 1.6 3.2 0.00 0.00 0.00 74 1008.9
20260505072117 13 0.0 3.2 0.00 0.00 0.00 72 1008.7
20260505071116 14 0.0 0.0 0.00 0.00 0.00 70 1008.7
20260505070117 15 0.0 0.0 0.00 0.00 0.00 68 1008.7
20260505065116 15 0.0 1.6 0.00 0.00 0.00 67 1008.7
20260505064116 15 0.0 0.0 0.00 0.00 0.00 68 1008.8
20260505063117 15 0.0 0.0 0.00 0.00 0.00 67 1008.9
20260505062116 15 0.0 0.0 0.00 0.00 0.00 65 1008.9
20260505061116 16 0.0 0.0 0.00 0.00 0.00 63 1009.0
20260505060116 16 0.0 0.0 0.00 0.00 0.00 63 1009.0
20260505055116 16 0.0 0.0 0.00 0.00 0.00 62 1009.1
20260505054117 17 0.0 0.0 0.00 0.00 0.00 60 1009.1
20260505053157 17 135 1.6 4.8 0.00 0.00 0.00 61 1009.1
20260505052116 17 0.0 0.0 0.00 0.00 0.00 59 1009.0
20260505051116 18 0.0 0.0 0.00 0.00 0.00 56 1009.1
20260505050116 19 0.0 1.6 0.00 0.00 0.00 52 1009.1
20260505041137 20 248 1.6 3.2 0.00 0.00 0.00 52 1008.7
20260505040116 20 68 1.6 3.2 0.00 0.00 0.00 52 1008.5
20260505035136 19 0.0 1.6 0.00 0.00 0.00 53 1008.4
20260505034137 18 248 3.2 6.4 0.00 0.00 0.00 53 1008.5
20260505033116 18 0.0 1.6 0.00 0.00 0.00 53 1008.6
20260505032116 18 225 3.2 6.4 0.00 0.00 0.00 53 1008.6
20260505031116 18 180 1.6 6.4 0.00 0.00 0.00 53 1008.6
20260505030116 19 0.0 1.6 0.00 0.00 0.00 51 1008.5
20260505025117 19 203 1.6 4.8 0.00 0.00 0.00 51 1008.5
20260505024116 19 225 3.2 3.2 0.00 0.00 0.00 50 1008.4
20260505023116 19 225 3.2 4.8 0.00 0.00 0.00 49 1008.4
20260505022116 19 68 1.6 3.2 0.00 0.00 0.00 49 1008.2
20260505021117 19 225 3.2 4.8 0.00 0.00 0.00 48 1008.2
20260505020116 19 225 3.2 3.2 0.00 0.00 0.00 48 1008.3
20260505015116 19 248 3.2 4.8 0.00 0.00 0.00 48 1008.1
20260505014117 19 203 3.2 4.8 0.00 0.00 0.00 47 1008.0
20260505013117 19 180 1.6 3.2 0.00 0.00 0.00 47 1008.1
20260505012117 20 135 3.2 6.4 0.00 0.00 0.00 46 1008.0
20260505011117 20 203 3.2 4.8 0.00 0.00 0.00 45 1007.8
20260505010116 20 158 3.2 4.8 0.00 0.00 0.00 45 1008.0
20260505005138 20 180 1.6 3.2 0.00 0.00 0.00 45 1007.9
20260505004117 20 225 1.6 4.8 0.00 0.00 0.00 44 1007.8
20260505003137 20 135 4.8 9.7 0.00 0.00 0.00 43 1007.6
20260505002116 20 135 3.2 4.8 0.00 0.00 0.00 43 1007.6
20260505001116 20 225 1.6 4.8 0.00 0.00 0.00 43 1007.5
20260505000116 21 135 1.6 4.8 0.00 0.00 0.00 43 1007.5
20260504235116 21 180 1.6 4.8 0.00 0.00 0.00 43 1007.5
20260504234116 21 225 1.6 4.8 0.00 0.00 0.00 42 1007.3
20260504233136 21 113 1.6 6.4 0.00 0.00 0.00 41 1007.3
20260504232117 22 135 4.8 6.4 0.00 0.00 0.00 39 1007.3
20260504231116 22 158 1.6 3.2 0.00 0.00 0.00 40 1007.3
20260504230116 22 180 3.2 6.4 0.00 0.00 0.00 38 1007.3
20260504225137 22 135 3.2 4.8 0.00 0.00 0.00 38 1007.5
20260504224116 22 135 4.8 12.9 0.00 0.00 0.00 38 1007.5
20260504223117 22 135 4.8 12.9 0.00 0.00 0.00 38 1007.4
20260504222136 22 225 3.2 6.4 0.00 0.00 0.00 39 1007.6
20260504221116 22 338 3.2 4.8 0.00 0.00 0.00 39 1007.6
20260504220116 23 135 4.8 9.7 0.00 0.00 0.00 38 1007.5
20260504215117 23 203 1.6 4.8 0.00 0.00 0.00 39 1007.5
20260504214116 23 135 4.8 8.0 0.00 0.00 0.00 38 1007.5
20260504213157 23 135 1.6 3.2 0.00 0.00 0.00 39 1007.5
20260504212117 23 225 1.6 3.2 0.00 0.00 0.00 38 1007.6
20260504211116 23 225 1.6 4.8 0.00 0.00 0.00 38 1007.5
20260504210116 23 158 8.0 14.5 0.00 0.00 0.00 36 1007.5
20260504205117 23 158 6.4 12.9 0.00 0.00 0.00 36 1007.6
20260504204116 23 180 3.2 8.0 0.00 0.00 0.00 33 1007.5
20260504203116 23 248 3.2 6.4 0.00 0.00 0.00 35 1007.5
20260504202153 23 203 1.6 3.2 0.00 0.00 0.00 36 1007.6
20260504201317 23 225 1.6 3.2 0.00 0.00 0.00 36 1007.8
20260504200337 23 135 8.0 14.5 0.00 0.00 0.00 35 1007.9
20260504195316 23 225 3.2 6.4 0.00 0.00 0.00 35 1008.2
20260504194336 23 248 8.0 12.9 0.00 0.00 0.00 34 1008.3
20260504193316 23 248 8.0 12.9 0.00 0.00 0.00 34 1008.6
20260504192316 23 225 4.8 12.9 0.00 0.00 0.00 35 1008.7
20260504191337 23 225 3.2 8.0 0.00 0.00 0.00 35 1008.7
20260504190317 23 248 11.3 16.1 0.00 0.00 0.00 34 1009.0
20260504185317 23 248 6.4 9.7 0.00 0.00 0.00 34 1009.2
20260504184316 23 248 9.7 14.5 0.00 0.00 0.00 34 1009.4
20260504183316 22 248 4.8 9.7 0.00 0.00 0.00 36 1009.5
20260504182317 22 248 4.8 9.7 0.00 0.00 0.00 36 1009.6
20260504181316 22 225 3.2 8.0 0.00 0.00 0.00 38 1009.9
20260504180317 22 293 6.4 14.5 0.00 0.00 0.00 36 1010.0
20260504175316 22 225 12.9 24.1 0.00 0.00 0.00 36 1010.2
20260504174337 21 270 3.2 8.0 0.00 0.00 0.00 36 1010.1
20260504173317 21 225 1.6 9.7 0.00 0.00 0.00 37 1010.3
20260504172316 22 315 4.8 9.7 0.00 0.00 0.00 36 1010.4
20260504171337 22 248 4.8 8.0 0.00 0.00 0.00 37 1010.6
20260504170317 22 270 1.6 4.8 0.00 0.00 0.00 37 1010.6